Location: Asheville, NC
(35.6000°N, 82.5500°W)
Time: 17:02:00
(UTC-05:00)

CUBEBUG 2 - Pass Details

Date: 09 January 2018
Orbit: 587 x 699 km, 97.6° (Epoch: 21 January)

Event Time Altitude Azimuth Distance (km) Brightness Sun altitude
Rises 06:46:56 0° 30° (NNE) 3,041 ? -10.8°
Reaches altitude 10° 06:49:42 10° 47° (NE) 2,136 ? -10.3°
Maximum altitude 06:53:09 20° 94° (E) 1,572 ? -9.6°
Drops below altitude 10° 06:56:37 10° 142° (SE) 2,148 ? -8.9°
Sets 06:59:24 0° 158° (SSE) 3,063 ? -8.4°
